TIME,DELAY(SENSOR),PRES,OXYGEN,RAWTEMP,T(OPTODE),TCPHASE,FLUOR,BETA(BETA700),BETA(BETA412),BETA(BETA440),CDOM,C(CSC),ED(ED412.40),ED(ED444.00),ED(ED489.70),ED(ED554.30),LU(LU411.80),LU(LU443.40),LU(LU489.60),LU(LU554.10),COMP,TILTX,TILTY,CHECK
1347767419,5808,838.7500000000000000,44.8862915039062500,661.8518066406250000,4.5669879913330080,54.2954216003418000,53,102,87,80,82,15273,2147754550,2147422427,2148009325,2147876324,2147643510,2147069997,2148257810,2147199469,1324,4,13,39685
1347771015,5806,914.2000122070312000,47.2259597778320300,670.8737792968750000,4.2693290710449220,54.0704917907714840,52,102,86,78,82,15270,2147756096,2147420507,2148011666,2147871936,2147639232,2147061083,2148259145,2147198427,3421,5,13,45316
1347774615,5807,952.3400268554688000,48.0278701782226560,673.0880126953125000,4.1961359977722170,53.9867095947265600,53,100,84,78,81,15270,2147759817,2147422610,2148009280,2147874011,2147643876,2147058185,2148260379,2147197330,3393,5,13,11827
1347778215,5807,981.7899780273438000,48.5828590393066400,675.5123291015625000,4.1159310340881350,53.9396400451660160,52,100,85,80,82,15271,2147759890,2147421092,2148009453,2147872950,2147647113,2147063899,2148263606,2147198290,592,5,13,8808
1347781815,5809,977.7899780273438000,48.4001617431640600,676.1763916015625000,4.0939521789550780,53.9700813293457000,53,102,87,79,81,15270,2147756059,2147423524,2148009106,2147876297,2147643236,2147065782,2148260187,2147194651,436,5,13,39103
1347785415,5810,984.1900024414062000,48.6293983459472660,677.1502075195312000,4.0617079734802250,53.9527091979980500,53,98,90,80,81,15272,2147760566,2147421220,2148006646,2147872100,2147643081,2147060361,2148262628,2147198153,199,5,13,6372
1347789015,5807,985.8099975585938000,48.6768417358398440,677.3488159179688000,4.0551338195800780,53.9425392150878900,53,99,91,79,81,15266,2147756534,2147421595,2148009408,2147876233,2147644297,2147066377,2148262482,2147196800,3446,5,13,52931
1347792615,5810,984.0300292968750000,48.7705307006835940,677.8106079101562000,4.0398349761962890,53.9412193298339840,52,99,89,79,82,15269,2147763254,2147421065,2148007314,2147873389,2147643593,2147054573,2148262308,2147195264,191,5,13,44555
1347796215,5809,996.5300292968750000,48.7411994934082000,677.5980834960938000,4.0468769073486330,53.9416503906250000,51,98,89,80,82,15265,2147761280,2147423826,2148009051,2147873865,2147644928,2147062153,2148259657,2147199131,740,4,13,53760
1347799815,5809,1001.2899780273438000,48.3413200378418000,676.8339843750000000,4.0721778869628910,53.9840393066406250,52,99,85,79,82,15263,2147758747,2147425270,2148008475,2147874898,2147643858,2147064969,2148262793,2147198363,3112,5,13,16586
1347803415,5805,992.4600219726562000,48.3244895935058600,677.7926025390625000,4.0404319763183590,54.0000190734863300,52,99,89,80,80,15264,2147758820,2147423131,2148007268,2147872283,2147643483,2147060845,2148268845,2147197165,135,5,13,48138
1347807015,5808,989.7399902343750000,48.4776000976562500,677.5737304687500000,4.0476841926574710,53.9766197204589840,52,104,87,79,82,15262,2147759789,2147422043,2148004937,2147876507,2147646683,2147063049,2148260681,2147197184,331,5,13,64002
1347810615,5810,991.9899902343750000,47.9025192260742200,677.7855834960938000,4.0406627655029300,54.0562515258789060,53,97,89,79,80,15260,2147761188,2147421604,2148007817,2147873718,2147644845,2147059209,2148263789,2147194962,228,5,13,49393
1347814215,5806,990.7500000000000000,48.1250114440918000,677.4902954101562000,4.0504460334777830,54.0224609375000000,53,101,89,78,82,15259,2147765065,2147423533,2148008886,2147873353,2147645842,2147069184,2148262034,2147200310,2833,5,13,47304
1347817815,5809,988.7299804687500000,48.3022918701171900,678.0952148437500000,4.0304088592529300,54.0091896057128900,52,99,90,79,81,15261,2147758454,2147423067,2148008109,2147872621,2147643794,2147060416,2148260699,2147198564,373,5,13,24733
1347821415,5807,995.8699951171875000,49.0573005676269500,678.6926269531250000,4.0106182098388670,53.9074401855468750,53,99,90,80,81,15261,2147762331,2147424713,2148008493,2147879488,2147643446,2147063104,2148263698,2147196333,247,5,13,29247
1347825015,5809,996.7299804687500000,48.7872505187988300,678.1129760742188000,4.0298190116882320,53.9385986328125000,53,99,89,80,82,15260,2147760877,2147425974,2148009901,2147874523,2147643931,2147065225,2148263762,2147196982,57,5,13,21332
1347828615,5809,993.4899902343750000,48.3848304748535160,677.8339843750000000,4.0390591621398930,53.9949913024902340,53,99,85,79,82,15260,2147760347,2147422418,2148008603,2147875684,2147643428,2147060333,2148257280,2147197449,71,5,13,13806
1347832215,5807,995.3400268554688000,48.1002883911132800,677.7399902343750000,4.0421748161315920,54.0320892333984400,53,98,84,79,81,15255,2147759643,2147424950,2148011017,2147874322,2147643648,2147061211,2148261558,2147198244,3446,5,13,2878
1347835815,5809,1000.9600219726562000,48.6049499511718750,678.5515747070312000,4.0152869224548340,53.9695396423339840,53,99,90,79,81,15255,2147757010,2147425481,2148010121,2147876507,2147641627,2147065060,2148265472,2147199643,226,5,13,27249
1347839415,5810,994.2800292968750000,48.1358413696289060,678.1085205078125000,4.0299677848815920,54.0279312133789060,53,99,90,79,82,15253,2147760118,2147421878,2148009389,2147875638,2147643684,2147063990,2148264155,2147195062,440,5,13,59351
1347843015,5809,1004.4099731445312000,48.2788810729980500,677.7968139648438000,4.0402932167053220,54.0097007751464840,52,99,84,78,80,15253,2147758902,2147423149,2148009984,2147874285,2147647460,2147065078,2148263652,2147197979,3164,4,13,11136
1347846615,5813,989.0900268554688000,48.3270683288574200,678.4995117187500000,4.0170168876647950,54.0083503723144500,52,100,92,79,81,15251,2147760896,2147422866,2148010715,2147872384,2147642907,2147064365,2148263286,2147200347,279,5,13,7514
1347850215,5808,1008.1400146484375000,48.3596611022949200,678.8087158203125000,4.0067710876464840,54.0105705261230500,53,100,89,79,83,15251,2147762742,2147423259,2148010605,2147874605,2147644553,2147056941,2148253522,2147198281,387,5,13,1969
1347853815,5806,1001.7700195312500000,48.2804412841796900,677.7357177734375000,4.0423178672790530,54.0047683715820300,53,102,90,79,81,15250,2147759780,2147424073,2148009124,2147876251,2147641773,2147064822,2148262162,2147197686,3588,4,13,7057
1347857415,5807,1005.0599975585938000,47.9869308471679700,677.0269165039062000,4.0657920837402340,54.0366592407226560,53,151,85,79,81,15242,2147763456,2147424530,2148007204,2147871314,2147642980,2147062116,2148266377,2147199131,3365,5,13,29559
1347861015,5809,1003.2700195312500000,48.1320190429687500,678.2114257812500000,4.0265598297119140,54.0305290222168000,51,100,86,78,83,15244,2147760758,2147423926,2148009956,2147873152,2147644937,2147064429,2148261805,2147194468,3245,5,13,38704
1347864615,5810,999.4199829101562000,48.2255210876464840,678.2194213867188000,4.0262970924377440,54.0184593200683600,53,101,86,111,82,15243,2147761188,2147419520,2148009664,2147871332,2147644361,2147064694,2148258139,2147200182,3128,5,13,15595
1347868215,5808,997.8800048828125000,48.0507392883300800,678.7426147460938000,4.0089631080627440,54.0474586486816400,52,99,90,78,83,15247,2147758089,2147420617,2148008978,2147873481,2147645686,2147062381,2148261760,2147197915,308,5,13,9975
1347871815,5811,994.1300048828125000,48.3138999938964840,678.5465698242188000,4.0154528617858890,54.0117683410644500,52,100,88,80,82,15244,2147756580,2147423963,2148005897,2147874889,2147643702,2147062354,2148260598,2147196022,3109,5,13,49366
1347875415,5810,998.4199829101562000,48.9826698303222660,678.9860839843750000,4.0008912086486820,53.9203910827636700,53,107,87,79,82,15237,2147758848,2147423488,2148012370,2147874624,2147645357,2147053595,2148264018,2147197568,3111,5,13,7422
1347879015,5810,994.4699707031250000,48.5338706970214840,678.9844970703125000,4.0009441375732420,53.9883995056152340,52,100,86,79,82,15241,2147759158,2147420635,2148009152,2147875675,2147645010,2147059117,2148265453,2147198052,3050,4,13,21495
1347882615,5807,995.9400024414062000,48.4305305480957000,679.1795043945312000,3.9944839477539062,54.0002403259277340,52,99,93,79,80,15243,2147759588,2147422546,2148010953,2147876032,2147645641,2147062290,2148265865,2147197824,3391,5,13,32116
1347886215,5808,1011.2600097656250000,49.0696792602539060,678.6215820312500000,4.0129699707031250,53.9091911315918000,53,100,88,79,81,15241,2147760411,2147423524,2148009024,2147872950,2147642925,2147067264,2148261467,2147197147,3281,5,13,61948
1347889815,5806,1007.7500000000000000,48.5145301818847660,677.7935180664062000,4.0404028892517090,53.9759407043457000,52,101,91,78,81,15205,2147758025,2147424640,2148007122,2147875821,2147646592,2147060617,2148263058,2147195840,3391,5,13,294
1347893415,5810,1009.0499877929688000,48.2454681396484400,677.6840209960938000,4.0440311431884770,54.0090103149414060,52,99,86,79,82,15208,2147758701,2147422189,2148006729,2147874889,2147646656,2147056932,2148261988,2147196297,551,5,13,56250
1347897015,5813,1002.6300048828125000,48.3488807678222660,677.6135864257812000,4.0463600158691410,53.9925193786621100,51,99,88,79,81,15199,2147761682,2147424054,2148009792,2147872804,2147642523,2147062363,2148258688,2147200777,3463,4,13,33916
1347900615,5808,998.8200073242188000,47.9906692504882800,677.5422973632812000,4.0487232208251950,54.0468101501464840,52,99,87,79,82,15207,2147759213,2147426395,2148008118,2147872356,2147644608,2147063963,2148261750,2147199085,1059,5,13,56180
1347904215,5810,1009.6199951171875000,48.1344795227050800,677.6552734375000000,4.0449790954589840,54.0259590148925800,52,99,85,79,82,15203,2147761627,2147420745,2148008932,2147876443,2147645568,2147063350,2148261586,2147198381,430,4,13,42504
1347907815,5808,1000.8900146484375000,48.0118408203125000,678.5656738281250000,4.0148200988769530,54.0510406494140600,53,108,87,79,81,15203,2147760210,2147422976,2148007131,2147873005,2147641590,2147060681,2148256777,2147199808,73,5,13,44138
1347911455,5811,995.4000244140625000,48.4717712402343750,679.1884155273438000,3.9941899776458740,53.9966392517089840,52,110,96,80,82,15252,2147763346,2147423360,2148007908,2147878482,2147643126,2147059373,2148263515,2147197065,3346,5,13,971
